Time,TemperatureF,DewpointF,PressureIn,WindDirection,WindDirectionDegrees,WindSpeedMPH,WindSpeedGustMPH,Humidity,HourlyPrecipIn,Conditions,Clouds,dailyrainin,SoftwareType,DateUTC
2013-09-08 00:00:00,66.7,59.7,30.19,SSW,198,6.0,12.0,78,0.00,CLR,,0.00,WeatherDisplay:10.37,2013-09-07 14:00:00,
2013-09-08 00:05:00,66.6,59.6,30.19,SSW,193,5.0,13.0,78,0.00,CLR,,0.00,WeatherDisplay:10.37,2013-09-07 14:05:00,
2013-09-08 00:10:00,66.6,59.5,30.19,SSW,200,5.0,12.0,78,0.00,CLR,,0.00,WeatherDisplay:10.37,2013-09-07 14:10:00,
2013-09-08 00:15:00,66.7,59.7,30.19,SSW,210,6.0,7.0,78,0.00,CLR,,0.00,WeatherDisplay:10.37,2013-09-07 14:15:00,
2013-09-08 00:20:00,66.6,59.5,30.19,SSW,205,5.0,8.0,78,0.00,CLR,,0.00,WeatherDisplay:10.37,2013-09-07 14:20:00,
2013-09-08 00:25:00,66.6,59.5,30.19,SSW,203,3.0,12.0,78,0.00,CLR,,0.00,WeatherDisplay:10.37,2013-09-07 14:25:00,
2013-09-08 00:30:00,66.6,59.5,30.19,SSW,198,5.0,9.0,78,0.00,CLR,,0.00,WeatherDisplay:10.37,2013-09-07 14:30:00,
2013-09-08 00:35:00,66.5,59.8,30.19,South,188,7.0,11.0,79,0.00,CLR,,0.00,WeatherDisplay:10.37,2013-09-07 14:35:00,
2013-09-08 00:40:00,66.4,59.7,30.19,SSW,196,5.0,11.0,79,0.00,CLR,,0.00,WeatherDisplay:10.37,2013-09-07 14:40:00,
2013-09-08 00:50:00,66.4,60.0,30.19,SSW,192,5.0,10.0,80,0.00,CLR,,0.00,WeatherDisplay:10.37,2013-09-07 14:50:00,
2013-09-08 00:55:00,66.4,60.0,30.19,South,186,5.0,8.0,80,0.00,CLR,,0.00,WeatherDisplay:10.37,2013-09-07 14:55:00,
2013-09-08 01:00:00,66.4,60.0,30.19,SSW,197,3.0,8.0,80,0.00,CLR,,0.00,WeatherDisplay:10.37,2013-09-07 15:00:00,
2013-09-08 01:05:00,66.4,60.0,30.19,SSW,198,5.0,8.0,80,0.00,CLR,,0.00,WeatherDisplay:10.37,2013-09-07 15:05:00,
2013-09-08 01:10:00,66.4,60.0,30.19,SSW,207,3.0,8.0,80,0.00,CLR,,0.00,WeatherDisplay:10.37,2013-09-07 15:10:00,
2013-09-08 01:15:00,66.4,60.0,30.19,SSW,198,2.0,6.0,80,0.00,CLR,,0.00,WeatherDisplay:10.37,2013-09-07 15:15:00,
2013-09-08 01:20:00,66.4,60.0,30.19,SSW,196,3.0,6.0,80,0.00,CLR,,0.00,WeatherDisplay:10.37,2013-09-07 15:20:00,
2013-09-08 01:30:00,66.4,60.0,30.19,SSW,205,3.0,7.0,80,0.00,CLR,,0.00,WeatherDisplay:10.37,2013-09-07 15:30:00,
2013-09-08 01:35:00,66.4,60.0,30.19,SSW,207,5.0,8.0,80,0.00,CLR,,0.00,WeatherDisplay:10.37,2013-09-07 15:35:00,
2013-09-08 01:40:00,66.4,60.0,30.19,SSW,204,2.0,5.0,80,0.00,CLR,,0.00,WeatherDisplay:10.37,2013-09-07 15:40:00,
2013-09-08 01:45:00,66.4,60.0,30.19,SSW,207,2.0,5.0,80,0.00,CLR,,0.00,WeatherDisplay:10.37,2013-09-07 15:45:00,
2013-09-08 01:50:00,66.4,60.0,30.19,SSW,212,1.0,5.0,80,0.00,CLR,,0.00,WeatherDisplay:10.37,2013-09-07 15:50:00,
2013-09-08 01:55:00,66.4,60.0,30.19,SW,218,2.0,5.0,80,0.00,CLR,,0.00,WeatherDisplay:10.37,2013-09-07 15:55:00,
2013-09-08 02:00:00,66.5,60.1,30.19,SSW,212,2.0,5.0,80,0.00,CLR,,0.00,WeatherDisplay:10.37,2013-09-07 16:00:00,
2013-09-08 02:05:00,66.6,60.2,30.19,SSW,201,0.0,2.0,80,0.00,CLR,,0.00,WeatherDisplay:10.37,2013-09-07 16:05:00,
2013-09-08 02:15:00,66.6,60.2,30.19,South,185,1.0,2.0,80,0.00,CLR,,0.00,WeatherDisplay:10.37,2013-09-07 16:15:00,
2013-09-08 02:20:00,66.6,60.2,30.19,SSW,194,1.0,2.0,80,0.00,CLR,,0.00,WeatherDisplay:10.37,2013-09-07 16:20:00,
2013-09-08 02:30:00,66.6,60.2,30.18,SSW,210,0.0,4.0,80,0.00,CLR,,0.00,WeatherDisplay:10.37,2013-09-07 16:30:00,
2013-09-08 02:35:00,66.6,60.2,30.18,SSW,213,0.0,2.0,80,0.00,CLR,,0.00,WeatherDisplay:10.37,2013-09-07 16:35:00,
2013-09-08 02:40:00,66.6,60.2,30.18,SW,229,0.0,1.0,80,0.00,CLR,,0.00,WeatherDisplay:10.37,2013-09-07 16:40:00,
2013-09-08 02:45:00,66.4,60.0,30.18,SW,233,1.0,3.0,80,0.00,CLR,,0.00,WeatherDisplay:10.37,2013-09-07 16:45:00,
2013-09-08 02:50:00,66.4,60.0,30.19,SW,235,0.0,2.0,80,0.00,CLR,,0.00,WeatherDisplay:10.37,2013-09-07 16:50:00,
2013-09-08 02:55:00,66.3,59.9,30.19,SW,233,0.0,3.0,80,0.00,CLR,,0.00,WeatherDisplay:10.37,2013-09-07 16:55:00,
2013-09-08 03:00:00,66.2,60.2,30.19,WSW,238,0.0,2.0,81,0.00,CLR,,0.00,WeatherDisplay:10.37,2013-09-07 17:00:00,
2013-09-08 03:05:00,66.2,60.2,30.19,WSW,242,0.0,2.0,81,0.00,CLR,,0.00,WeatherDisplay:10.37,2013-09-07 17:05:00,
2013-09-08 03:10:00,66.0,60.0,30.19,WSW,257,0.0,2.0,81,0.00,CLR,,0.00,WeatherDisplay:10.37,2013-09-07 17:10:00,
2013-09-08 03:15:00,66.0,60.0,30.19,WSW,252,0.0,0.0,81,0.00,CLR,,0.00,WeatherDisplay:10.37,2013-09-07 17:15:00,
2013-09-08 03:20:00,66.0,60.0,30.19,WSW,253,0.0,0.0,81,0.00,CLR,,0.00,WeatherDisplay:10.37,2013-09-07 17:20:00,
2013-09-08 03:25:00,66.0,60.0,30.19,West,260,0.0,0.0,81,0.00,CLR,,0.00,WeatherDisplay:10.37,2013-09-07 17:25:00,
2013-09-08 03:30:00,66.0,60.0,30.19,West,264,0.0,1.0,81,0.00,CLR,,0.00,WeatherDisplay:10.37,2013-09-07 17:30:00,
2013-09-08 03:35:00,66.2,60.2,30.19,WNW,302,0.0,0.0,81,0.00,CLR,,0.00,WeatherDisplay:10.37,2013-09-07 17:35:00,
2013-09-08 03:40:00,66.2,60.2,30.19,NNW,341,0.0,2.0,81,0.00,CLR,,0.00,WeatherDisplay:10.37,2013-09-07 17:40:00,
2013-09-08 03:45:00,66.4,60.4,30.19,NW,304,0.0,0.0,81,0.00,CLR,,0.00,WeatherDisplay:10.37,2013-09-07 17:45:00,
2013-09-08 03:50:00,66.2,60.2,30.19,West,272,0.0,0.0,81,0.00,CLR,,0.00,WeatherDisplay:10.37,2013-09-07 17:50:00,
2013-09-08 04:00:00,66.0,60.0,30.19,NW,324,0.0,0.0,81,0.00,CLR,,0.00,WeatherDisplay:10.37,2013-09-07 18:00:00,
2013-09-08 04:05:00,65.9,60.3,30.19,NW,315,0.0,1.0,82,0.00,CLR,,0.00,WeatherDisplay:10.37,2013-09-07 18:05:00,
2013-09-08 04:10:00,66.0,60.0,30.19,NW,323,0.0,0.0,81,0.00,CLR,,0.00,WeatherDisplay:10.37,2013-09-07 18:10:00,
2013-09-08 04:15:00,66.0,60.4,30.19,North,2,0.0,0.0,82,0.00,CLR,,0.00,WeatherDisplay:10.37,2013-09-07 18:15:00,
2013-09-08 04:20:00,66.0,60.0,30.19,North,8,0.0,1.0,81,0.00,CLR,,0.00,WeatherDisplay:10.37,2013-09-07 18:20:00,
2013-09-08 04:25:00,65.8,59.8,30.19,North,349,0.0,7.0,81,0.00,CLR,,0.00,WeatherDisplay:10.37,2013-09-07 18:25:00,
2013-09-08 04:30:00,65.7,59.8,30.19,NNW,348,1.0,2.0,81,0.00,CLR,,0.00,WeatherDisplay:10.37,2013-09-07 18:30:00,
2013-09-08 04:35:00,65.5,59.5,30.19,NNW,345,0.0,1.0,81,0.00,CLR,,0.00,WeatherDisplay:10.37,2013-09-07 18:35:00,
2013-09-08 04:40:00,65.3,59.3,30.20,NW,320,0.0,0.0,81,0.00,CLR,,0.00,WeatherDisplay:10.37,2013-09-07 18:40:00,
2013-09-08 04:45:00,65.1,59.5,30.20,WNW,301,0.0,0.0,82,0.00,CLR,,0.00,WeatherDisplay:10.37,2013-09-07 18:45:00,
2013-09-08 04:50:00,65.1,59.5,30.20,West,281,0.0,7.0,82,0.00,CLR,,0.00,WeatherDisplay:10.37,2013-09-07 18:50:00,
2013-09-08 04:55:00,65.1,59.5,30.20,West,274,0.0,0.0,82,0.00,CLR,,0.00,WeatherDisplay:10.37,2013-09-07 18:55:00,
2013-09-08 05:00:00,65.1,59.8,30.20,WNW,301,1.0,1.0,83,0.00,CLR,,0.00,WeatherDisplay:10.37,2013-09-07 19:00:00,
2013-09-08 05:05:00,65.3,60.0,30.20,NW,325,0.0,0.0,83,0.00,CLR,,0.00,WeatherDisplay:10.37,2013-09-07 19:05:00,
2013-09-08 05:10:00,65.3,59.7,30.20,NNW,332,0.0,7.0,82,0.00,CLR,,0.00,WeatherDisplay:10.37,2013-09-07 19:10:00,
2013-09-08 05:15:00,65.3,59.7,30.20,NNW,333,0.0,0.0,82,0.00,CLR,,0.00,WeatherDisplay:10.37,2013-09-07 19:15:00,
2013-09-08 05:20:00,65.4,59.8,30.20,NNW,336,0.0,1.0,82,0.00,CLR,,0.00,WeatherDisplay:10.37,2013-09-07 19:20:00,
2013-09-08 05:25:00,65.4,60.1,30.20,North,7,0.0,1.0,83,0.00,CLR,,0.00,WeatherDisplay:10.37,2013-09-07 19:25:00,
2013-09-08 05:30:00,65.3,60.0,30.20,SE,129,0.0,2.0,83,0.00,CLR,,0.00,WeatherDisplay:10.37,2013-09-07 19:30:00,
2013-09-08 05:35:00,65.3,60.0,30.20,NW,321,1.0,7.0,83,0.00,CLR,,0.00,WeatherDisplay:10.37,2013-09-07 19:35:00,
2013-09-08 05:40:00,65.3,60.0,30.21,NW,304,0.0,2.0,83,0.00,CLR,,0.00,WeatherDisplay:10.37,2013-09-07 19:40:00,
2013-09-08 05:45:00,65.1,59.8,30.21,SE,144,1.0,7.0,83,0.00,CLR,,0.00,WeatherDisplay:10.37,2013-09-07 19:45:00,
2013-09-08 05:50:00,65.1,60.2,30.21,SE,124,0.0,7.0,84,0.02,RA,,0.02,WeatherDisplay:10.37,2013-09-07 19:50:00,
2013-09-08 06:00:00,65.1,60.2,30.21,SE,129,0.0,0.0,84,0.00,CLR,,0.02,WeatherDisplay:10.37,2013-09-07 20:00:00,
2013-09-08 06:05:00,65.1,60.5,30.21,SSE,155,1.0,7.0,85,0.00,CLR,,0.02,WeatherDisplay:10.37,2013-09-07 20:05:00,
2013-09-08 06:10:00,65.1,60.5,30.22,SSW,193,0.0,2.0,85,0.00,CLR,,0.02,WeatherDisplay:10.37,2013-09-07 20:10:00,
2013-09-08 06:15:00,65.1,60.5,30.22,SSW,203,0.0,7.0,85,0.00,CLR,,0.02,WeatherDisplay:10.37,2013-09-07 20:15:00,
2013-09-08 06:20:00,65.1,60.5,30.22,South,176,0.0,7.0,85,0.00,CLR,,0.02,WeatherDisplay:10.37,2013-09-07 20:20:00,
2013-09-08 06:30:00,65.1,60.5,30.23,SSW,199,3.0,7.0,85,0.00,CLR,,0.02,WeatherDisplay:10.37,2013-09-07 20:30:00,
2013-09-08 06:40:00,65.1,60.5,30.23,NW,305,9.0,21.0,85,0.00,CLR,,0.02,WeatherDisplay:10.37,2013-09-07 20:40:00,
2013-09-08 06:50:00,64.9,60.3,30.24,South,191,5.0,7.0,85,0.00,CLR,,0.02,WeatherDisplay:10.37,2013-09-07 20:50:00,
2013-09-08 06:55:00,64.9,60.3,30.24,WSW,245,2.0,21.0,85,0.00,CLR,,0.02,WeatherDisplay:10.37,2013-09-07 20:55:00,
2013-09-08 07:00:00,65.0,60.4,30.24,SW,236,5.0,7.0,85,0.00,CLR,,0.02,WeatherDisplay:10.37,2013-09-07 21:00:00,
2013-09-08 07:05:00,64.9,60.3,30.24,WSW,243,6.0,7.0,85,0.00,CLR,,0.02,WeatherDisplay:10.37,2013-09-07 21:05:00,
2013-09-08 07:10:00,64.9,60.3,30.24,West,267,5.0,7.0,85,0.00,CLR,,0.02,WeatherDisplay:10.37,2013-09-07 21:10:00,
2013-09-08 07:15:00,65.0,60.1,30.24,SW,226,5.0,7.0,84,0.00,CLR,,0.02,WeatherDisplay:10.37,2013-09-07 21:15:00,
2013-09-08 07:20:00,64.9,60.0,30.24,SW,232,7.0,8.0,84,0.00,CLR,,0.02,WeatherDisplay:10.37,2013-09-07 21:20:00,
2013-09-08 07:25:00,65.1,60.2,30.25,SW,223,6.0,8.0,84,0.00,CLR,,0.02,WeatherDisplay:10.37,2013-09-07 21:25:00,
2013-09-08 07:30:00,65.0,59.7,30.25,WSW,254,7.0,8.0,83,0.00,CLR,,0.02,WeatherDisplay:10.37,2013-09-07 21:30:00,
2013-09-08 07:35:00,65.1,59.8,30.25,SW,214,7.0,21.0,83,0.00,CLR,,0.02,WeatherDisplay:10.37,2013-09-07 21:35:00,
2013-09-08 07:40:00,65.1,59.8,30.25,SSW,196,2.0,7.0,83,0.00,CLR,,0.02,WeatherDisplay:10.37,2013-09-07 21:40:00,
2013-09-08 07:45:00,65.1,59.8,30.26,South,185,7.0,8.0,83,0.00,CLR,,0.02,WeatherDisplay:10.37,2013-09-07 21:45:00,
2013-09-08 07:50:00,65.1,59.5,30.25,South,183,6.0,8.0,82,0.00,CLR,,0.02,WeatherDisplay:10.37,2013-09-07 21:50:00,
2013-09-08 07:55:00,65.0,59.4,30.26,SSW,197,7.0,12.0,82,0.00,CLR,,0.02,WeatherDisplay:10.37,2013-09-07 21:55:00,
2013-09-08 08:00:00,64.9,59.3,30.25,South,184,7.0,10.0,82,0.00,CLR,,0.02,WeatherDisplay:10.37,2013-09-07 22:00:00,
2013-09-08 08:05:00,64.9,59.3,30.26,South,179,3.0,7.0,82,0.00,CLR,,0.02,WeatherDisplay:10.37,2013-09-07 22:05:00,
2013-09-08 08:10:00,65.1,59.5,30.26,SSW,195,5.0,8.0,82,0.00,CLR,,0.02,WeatherDisplay:10.37,2013-09-07 22:10:00,
2013-09-08 08:15:00,65.1,59.5,30.26,SSW,205,3.0,8.0,82,0.00,CLR,,0.02,WeatherDisplay:10.37,2013-09-07 22:15:00,
2013-09-08 08:20:00,65.2,59.6,30.26,SSW,211,5.0,12.0,82,0.00,CLR,,0.02,WeatherDisplay:10.37,2013-09-07 22:20:00,
2013-09-08 08:25:00,65.5,59.5,30.26,SSW,211,7.0,8.0,81,0.00,CLR,,0.02,WeatherDisplay:10.37,2013-09-07 22:25:00,
2013-09-08 08:30:00,65.5,59.5,30.26,SW,216,6.0,9.0,81,0.00,CLR,,0.02,WeatherDisplay:10.37,2013-09-07 22:30:00,
2013-09-08 08:35:00,65.6,59.6,30.26,SSW,208,7.0,10.0,81,0.00,CLR,,0.02,WeatherDisplay:10.37,2013-09-07 22:35:00,
2013-09-08 08:45:00,65.8,59.5,30.26,SW,223,5.0,9.0,80,0.00,CLR,,0.02,WeatherDisplay:10.37,2013-09-07 22:45:00,
2013-09-08 08:50:00,65.8,59.5,30.26,SSW,204,5.0,10.0,80,0.00,CLR,,0.02,WeatherDisplay:10.37,2013-09-07 22:50:00,
2013-09-08 08:55:00,65.8,59.5,30.26,SSW,207,6.0,10.0,80,0.00,CLR,,0.02,WeatherDisplay:10.37,2013-09-07 22:55:00,
2013-09-08 09:00:00,65.9,59.6,30.26,SSW,213,8.0,11.0,80,0.00,RA,,0.00,WeatherDisplay:10.37,2013-09-07 23:00:00,
2013-09-08 09:05:00,66.0,59.7,30.26,SSW,211,8.0,12.0,80,0.00,RA,,0.00,WeatherDisplay:10.37,2013-09-07 23:05:00,
2013-09-08 09:10:00,66.0,59.7,30.26,SSW,210,8.0,14.0,80,0.00,CLR,,0.00,WeatherDisplay:10.37,2013-09-07 23:10:00,
2013-09-08 09:15:00,66.0,59.7,30.26,SW,217,6.0,9.0,80,0.00,CLR,,0.00,WeatherDisplay:10.37,2013-09-07 23:15:00,
2013-09-08 09:20:00,66.4,59.7,30.25,SSW,210,6.0,12.0,79,0.00,CLR,,0.00,WeatherDisplay:10.37,2013-09-07 23:20:00,
2013-09-08 09:25:00,66.6,59.8,30.25,SSW,199,5.0,12.0,79,0.00,CLR,,0.00,WeatherDisplay:10.37,2013-09-07 23:25:00,
2013-09-08 09:30:00,66.7,60.0,30.26,SSW,198,7.0,10.0,79,0.00,CLR,,0.00,WeatherDisplay:10.37,2013-09-07 23:30:00,
2013-09-08 09:35:00,66.9,59.8,30.25,SSW,195,7.0,10.0,78,0.00,CLR,,0.00,WeatherDisplay:10.37,2013-09-07 23:35:00,
2013-09-08 09:40:00,66.9,59.8,30.25,South,188,5.0,9.0,78,0.00,CLR,,0.00,WeatherDisplay:10.37,2013-09-07 23:40:00,
2013-09-08 09:50:00,67.3,60.2,30.25,South,191,5.0,9.0,78,0.00,CLR,,0.00,WeatherDisplay:10.37,2013-09-07 23:50:00,
2013-09-08 09:55:00,67.3,60.2,30.25,SSE,166,8.0,11.0,78,0.00,CLR,,0.00,WeatherDisplay:10.37,2013-09-07 23:55:00,
2013-09-08 10:00:00,67.3,59.8,30.25,South,180,6.0,13.0,77,0.00,CLR,,0.00,WeatherDisplay:10.37,2013-09-08 00:00:00,
2013-09-08 10:05:00,67.5,60.1,30.25,SSW,209,6.0,13.0,77,0.00,CLR,,0.00,WeatherDisplay:10.37,2013-09-08 00:05:00,
2013-09-08 10:10:00,67.6,60.2,30.25,SSW,205,6.0,16.0,77,0.00,CLR,,0.00,WeatherDisplay:10.37,2013-09-08 00:10:00,
2013-09-08 10:15:00,67.7,60.3,30.25,South,186,7.0,12.0,77,0.00,CLR,,0.00,WeatherDisplay:10.37,2013-09-08 00:15:00,
2013-09-08 10:20:00,67.8,60.0,30.25,South,181,7.0,13.0,76,0.00,CLR,,0.00,WeatherDisplay:10.37,2013-09-08 00:20:00,
2013-09-08 10:25:00,68.0,60.2,30.25,South,181,7.0,13.0,76,0.00,CLR,,0.00,WeatherDisplay:10.37,2013-09-08 00:25:00,
2013-09-08 10:30:00,68.2,60.3,30.25,South,187,8.0,13.0,76,0.00,CLR,,0.00,WeatherDisplay:10.37,2013-09-08 00:30:00,
2013-09-08 10:35:00,68.2,60.3,30.25,South,188,6.0,14.0,76,0.00,CLR,,0.00,WeatherDisplay:10.37,2013-09-08 00:35:00,
2013-09-08 10:40:00,68.3,60.4,30.25,South,177,8.0,13.0,76,0.00,CLR,,0.00,WeatherDisplay:10.37,2013-09-08 00:40:00,
2013-09-08 10:50:00,68.3,60.5,30.24,SSE,165,7.0,10.0,76,0.00,CLR,,0.00,WeatherDisplay:10.37,2013-09-08 00:50:00,
2013-09-08 10:55:00,68.2,60.3,30.24,South,187,3.0,8.0,76,0.00,CLR,,0.00,WeatherDisplay:10.37,2013-09-08 00:55:00,
2013-09-08 11:00:00,68.2,60.3,30.25,South,181,9.0,14.0,76,0.00,CLR,,0.00,WeatherDisplay:10.37,2013-09-08 01:00:00,
2013-09-08 11:05:00,67.8,60.0,30.24,South,174,8.0,11.0,76,0.00,CLR,,0.00,WeatherDisplay:10.37,2013-09-08 01:05:00,
2013-09-08 11:10:00,67.8,60.0,30.24,South,170,10.0,14.0,76,0.00,CLR,,0.00,WeatherDisplay:10.37,2013-09-08 01:10:00,
2013-09-08 11:15:00,67.8,60.0,30.24,South,172,7.0,10.0,76,0.00,CLR,,0.00,WeatherDisplay:10.37,2013-09-08 01:15:00,
2013-09-08 11:20:00,67.8,60.0,30.24,South,173,7.0,12.0,76,0.00,CLR,,0.00,WeatherDisplay:10.37,2013-09-08 01:20:00,
2013-09-08 11:25:00,67.8,60.0,30.23,South,174,8.0,12.0,76,0.00,CLR,,0.00,WeatherDisplay:10.37,2013-09-08 01:25:00,
2013-09-08 11:30:00,68.1,60.2,30.23,South,174,6.0,11.0,76,0.00,CLR,,0.00,WeatherDisplay:10.37,2013-09-08 01:30:00,
2013-09-08 11:35:00,68.4,60.5,30.23,South,177,8.0,14.0,76,0.00,CLR,,0.00,WeatherDisplay:10.37,2013-09-08 01:35:00,
2013-09-08 11:40:00,68.7,60.8,30.22,South,189,9.0,13.0,76,0.00,CLR,,0.00,WeatherDisplay:10.37,2013-09-08 01:40:00,
2013-09-08 11:50:00,69.4,61.2,30.22,SSW,208,12.0,15.0,75,0.00,CLR,,0.00,WeatherDisplay:10.37,2013-09-08 01:50:00,
2013-09-08 11:55:00,69.4,61.2,30.22,SSW,199,6.0,14.0,75,0.00,CLR,,0.00,WeatherDisplay:10.37,2013-09-08 01:55:00,
2013-09-08 12:00:00,68.9,60.3,30.22,SSE,151,7.0,13.0,74,0.00,CLR,,0.00,WeatherDisplay:10.37,2013-09-08 02:00:00,
2013-09-08 12:05:00,68.5,60.3,30.22,SE,138,7.0,13.0,75,0.00,CLR,,0.00,WeatherDisplay:10.37,2013-09-08 02:05:00,
2013-09-08 12:10:00,68.4,60.1,30.22,SSE,152,3.0,8.0,75,0.00,CLR,,0.00,WeatherDisplay:10.37,2013-09-08 02:10:00,
2013-09-08 12:15:00,68.2,60.0,30.22,SSE,160,5.0,10.0,75,0.00,CLR,,0.00,WeatherDisplay:10.37,2013-09-08 02:15:00,
2013-09-08 12:20:00,68.0,60.1,30.22,South,170,6.0,9.0,76,0.00,CLR,,0.00,WeatherDisplay:10.37,2013-09-08 02:20:00,
2013-09-08 12:25:00,67.8,60.0,30.22,South,180,5.0,10.0,76,0.00,CLR,,0.00,WeatherDisplay:10.37,2013-09-08 02:25:00,
2013-09-08 12:30:00,67.6,59.8,30.22,South,182,2.0,10.0,76,0.00,CLR,,0.00,WeatherDisplay:10.37,2013-09-08 02:30:00,
2013-09-08 12:35:00,67.6,60.2,30.22,South,185,6.0,9.0,77,0.00,CLR,,0.00,WeatherDisplay:10.37,2013-09-08 02:35:00,
2013-09-08 12:40:00,67.5,60.0,30.22,South,175,5.0,8.0,77,0.00,CLR,,0.00,WeatherDisplay:10.37,2013-09-08 02:40:00,
2013-09-08 12:45:00,67.6,60.2,30.22,SSE,161,5.0,12.0,77,0.00,CLR,,0.00,WeatherDisplay:10.37,2013-09-08 02:45:00,
2013-09-08 12:50:00,67.8,60.3,30.21,SSE,157,3.0,12.0,77,0.00,CLR,,0.00,WeatherDisplay:10.37,2013-09-08 02:50:00,
2013-09-08 12:55:00,68.2,60.3,30.21,South,170,5.0,9.0,76,0.00,CLR,,0.00,WeatherDisplay:10.37,2013-09-08 02:55:00,
2013-09-08 13:00:00,68.4,60.5,30.21,South,171,5.0,7.0,76,0.00,CLR,,0.00,WeatherDisplay:10.37,2013-09-08 03:00:00,
2013-09-08 13:10:00,68.4,60.1,30.21,SSE,165,6.0,8.0,75,0.00,CLR,,0.00,WeatherDisplay:10.37,2013-09-08 03:10:00,
2013-09-08 13:15:00,68.5,60.2,30.20,SSE,154,3.0,12.0,75,0.00,CLR,,0.00,WeatherDisplay:10.37,2013-09-08 03:15:00,
2013-09-08 13:20:00,68.5,59.9,30.20,SE,140,2.0,8.0,74,0.00,CLR,,0.00,WeatherDisplay:10.37,2013-09-08 03:20:00,
2013-09-08 13:25:00,68.5,59.9,30.20,SE,133,6.0,9.0,74,0.00,CLR,,0.00,WeatherDisplay:10.37,2013-09-08 03:25:00,
2013-09-08 13:30:00,68.4,59.4,30.20,SE,132,5.0,8.0,73,0.00,CLR,,0.00,WeatherDisplay:10.37,2013-09-08 03:30:00,
2013-09-08 13:35:00,68.3,59.3,30.20,SE,133,6.0,13.0,73,0.00,CLR,,0.00,WeatherDisplay:10.37,2013-09-08 03:35:00,
2013-09-08 13:40:00,68.2,59.2,30.20,SE,144,5.0,14.0,73,0.00,CLR,,0.00,WeatherDisplay:10.37,2013-09-08 03:40:00,
2013-09-08 13:45:00,68.5,59.5,30.20,SSE,152,3.0,8.0,73,0.00,CLR,,0.00,WeatherDisplay:10.37,2013-09-08 03:45:00,
2013-09-08 13:50:00,68.6,59.6,30.20,SE,142,6.0,9.0,73,0.00,CLR,,0.00,WeatherDisplay:10.37,2013-09-08 03:50:00,
2013-09-08 13:55:00,68.7,59.3,30.20,SE,131,3.0,8.0,72,0.00,CLR,,0.00,WeatherDisplay:10.37,2013-09-08 03:55:00,
2013-09-08 14:00:00,68.8,59.4,30.19,ESE,117,5.0,14.0,72,0.00,CLR,,0.00,WeatherDisplay:10.37,2013-09-08 04:00:00,
2013-09-08 14:05:00,68.9,59.5,30.19,SE,132,8.0,14.0,72,0.00,CLR,,0.00,WeatherDisplay:10.37,2013-09-08 04:05:00,
2013-09-08 14:10:00,68.9,59.5,30.19,SE,137,3.0,14.0,72,0.00,CLR,,0.00,WeatherDisplay:10.37,2013-09-08 04:10:00,
2013-09-08 14:14:00,68.8,59.4,30.19,SE,141,1.0,6.0,72,0.00,CLR,,0.00,WeatherDisplay:10.37,2013-09-08 04:14:00,
2013-09-08 14:20:00,68.9,59.5,30.19,ESE,122,2.0,6.0,72,0.00,CLR,,0.00,WeatherDisplay:10.37,2013-09-08 04:20:00,
2013-09-08 14:25:00,68.9,59.1,30.19,ESE,122,3.0,9.0,71,0.00,CLR,,0.00,WeatherDisplay:10.37,2013-09-08 04:25:00,
2013-09-08 14:30:00,69.1,59.3,30.19,SE,127,2.0,14.0,71,0.00,CLR,,0.00,WeatherDisplay:10.37,2013-09-08 04:30:00,
2013-09-08 14:35:00,69.4,59.6,30.19,ESE,123,3.0,13.0,71,0.00,CLR,,0.00,WeatherDisplay:10.37,2013-09-08 04:35:00,
2013-09-08 14:40:00,69.1,59.3,30.19,ESE,111,5.0,7.0,71,0.00,CLR,,0.00,WeatherDisplay:10.37,2013-09-08 04:40:00,
2013-09-08 14:50:00,69.1,59.3,30.18,SE,139,3.0,6.0,71,0.00,CLR,,0.00,WeatherDisplay:10.37,2013-09-08 04:50:00,
2013-09-08 14:55:00,69.1,59.3,30.18,SE,127,3.0,8.0,71,0.00,CLR,,0.00,WeatherDisplay:10.37,2013-09-08 04:55:00,
2013-09-08 15:00:00,69.1,59.3,30.18,ESE,108,3.0,8.0,71,0.00,CLR,,0.00,WeatherDisplay:10.37,2013-09-08 05:00:00,
2013-09-08 15:05:00,69.1,58.9,30.17,East,97,2.0,7.0,70,0.00,CLR,,0.00,WeatherDisplay:10.37,2013-09-08 05:05:00,
2013-09-08 15:10:00,69.1,58.9,30.18,ESE,115,3.0,7.0,70,0.00,CLR,,0.00,WeatherDisplay:10.37,2013-09-08 05:10:00,
2013-09-08 15:15:00,68.9,58.8,30.18,SE,131,5.0,9.0,70,0.00,CLR,,0.00,WeatherDisplay:10.37,2013-09-08 05:15:00,
2013-09-08 15:20:00,68.8,58.6,30.17,SE,130,5.0,8.0,70,0.00,CLR,,0.00,WeatherDisplay:10.37,2013-09-08 05:20:00,
2013-09-08 15:25:00,68.7,58.5,30.17,ESE,117,2.0,5.0,70,0.00,CLR,,0.00,WeatherDisplay:10.37,2013-09-08 05:25:00,
2013-09-08 15:30:00,68.7,58.5,30.17,East,98,2.0,4.0,70,0.00,CLR,,0.00,WeatherDisplay:10.37,2013-09-08 05:30:00,
2013-09-08 15:35:00,68.7,58.9,30.17,ESE,111,2.0,10.0,71,0.00,CLR,,0.00,WeatherDisplay:10.37,2013-09-08 05:35:00,
2013-09-08 15:40:00,68.7,58.9,30.18,ESE,117,5.0,10.0,71,0.00,CLR,,0.00,WeatherDisplay:10.37,2013-09-08 05:40:00,
2013-09-08 15:45:00,68.7,58.5,30.18,ESE,107,2.0,8.0,70,0.00,CLR,,0.00,WeatherDisplay:10.37,2013-09-08 05:45:00,
2013-09-08 15:50:00,68.9,58.7,30.17,East,94,3.0,7.0,70,0.00,CLR,,0.00,WeatherDisplay:10.37,2013-09-08 05:50:00,
2013-09-08 16:00:00,68.7,58.5,30.18,ENE,77,3.0,7.0,70,0.00,CLR,,0.00,WeatherDisplay:10.37,2013-09-08 06:00:00,
2013-09-08 16:05:00,68.7,58.5,30.18,ESE,115,2.0,8.0,70,0.00,CLR,,0.00,WeatherDisplay:10.37,2013-09-08 06:05:00,
2013-09-08 16:10:00,68.5,58.4,30.18,ESE,104,3.0,7.0,70,0.00,CLR,,0.00,WeatherDisplay:10.37,2013-09-08 06:10:00,
2013-09-08 16:15:00,68.5,58.3,30.17,ENE,64,2.0,7.0,70,0.00,CLR,,0.00,WeatherDisplay:10.37,2013-09-08 06:15:00,
2013-09-08 16:20:00,68.2,58.4,30.17,NE,50,3.0,6.0,71,0.00,CLR,,0.00,WeatherDisplay:10.37,2013-09-08 06:20:00,
2013-09-08 16:30:00,68.1,58.3,30.17,East,86,2.0,6.0,71,0.00,CLR,,0.00,WeatherDisplay:10.37,2013-09-08 06:30:00,
2013-09-08 16:35:00,67.9,58.1,30.17,East,80,5.0,7.0,71,0.00,CLR,,0.00,WeatherDisplay:10.37,2013-09-08 06:35:00,
2013-09-08 16:40:00,67.8,58.1,30.17,East,79,2.0,6.0,71,0.00,CLR,,0.00,WeatherDisplay:10.37,2013-09-08 06:40:00,
2013-09-08 16:44:00,67.8,58.1,30.18,ENE,74,3.0,7.0,71,0.00,CLR,,0.00,WeatherDisplay:10.37,2013-09-08 06:44:00,
2013-09-08 16:50:00,67.8,58.1,30.18,East,79,3.0,6.0,71,0.00,CLR,,0.00,WeatherDisplay:10.37,2013-09-08 06:50:00,
2013-09-08 16:55:00,67.7,58.0,30.18,East,100,2.0,6.0,71,0.00,CLR,,0.00,WeatherDisplay:10.37,2013-09-08 06:55:00,
2013-09-08 16:59:00,67.8,58.4,30.18,East,99,2.0,5.0,72,0.00,CLR,,0.00,WeatherDisplay:10.37,2013-09-08 06:59:00,
2013-09-08 17:05:00,67.6,58.3,30.18,East,99,2.0,6.0,72,0.00,CLR,,0.00,WeatherDisplay:10.37,2013-09-08 07:05:00,
2013-09-08 17:10:00,67.6,58.3,30.18,East,93,2.0,3.0,72,0.00,CLR,,0.00,WeatherDisplay:10.37,2013-09-08 07:10:00,
2013-09-08 17:15:00,67.6,58.3,30.18,East,101,2.0,6.0,72,0.00,CLR,,0.00,WeatherDisplay:10.37,2013-09-08 07:15:00,
2013-09-08 17:20:00,67.6,58.3,30.18,East,100,1.0,4.0,72,0.00,CLR,,0.00,WeatherDisplay:10.37,2013-09-08 07:20:00,
2013-09-08 17:25:00,67.4,58.1,30.18,East,99,1.0,5.0,72,0.00,CLR,,0.00,WeatherDisplay:10.37,2013-09-08 07:25:00,
2013-09-08 17:30:00,67.3,58.3,30.18,ESE,104,2.0,5.0,73,0.00,CLR,,0.00,WeatherDisplay:10.37,2013-09-08 07:30:00,
2013-09-08 17:34:00,67.3,58.3,30.18,East,98,1.0,3.0,73,0.00,CLR,,0.00,WeatherDisplay:10.37,2013-09-08 07:34:00,
2013-09-08 17:40:00,67.3,58.3,30.19,East,94,2.0,4.0,73,0.00,CLR,,0.00,WeatherDisplay:10.37,2013-09-08 07:40:00,
2013-09-08 17:45:00,67.1,58.5,30.18,East,85,1.0,4.0,74,0.00,CLR,,0.00,WeatherDisplay:10.37,2013-09-08 07:45:00,
2013-09-08 17:50:00,66.9,58.4,30.19,East,94,0.0,3.0,74,0.00,CLR,,0.00,WeatherDisplay:10.37,2013-09-08 07:50:00,
2013-09-08 17:54:00,66.9,58.4,30.19,East,91,1.0,2.0,74,0.00,CLR,,0.00,WeatherDisplay:10.37,2013-09-08 07:54:00,
2013-09-08 17:59:00,66.7,58.2,30.19,ENE,77,1.0,3.0,74,0.00,CLR,,0.00,WeatherDisplay:10.37,2013-09-08 07:59:00,
2013-09-08 18:04:00,66.7,58.6,30.19,ENE,73,0.0,1.0,75,0.00,CLR,,0.00,WeatherDisplay:10.37,2013-09-08 08:04:00,
2013-09-08 18:10:00,66.6,58.4,30.19,NE,36,0.0,2.0,75,0.00,CLR,,0.00,WeatherDisplay:10.37,2013-09-08 08:10:00,
2013-09-08 18:14:00,66.5,58.3,30.18,NNE,29,0.0,1.0,75,0.00,CLR,,0.00,WeatherDisplay:10.37,2013-09-08 08:14:00,
2013-09-08 18:20:00,66.2,58.0,30.19,NNW,339,0.0,0.0,75,0.00,CLR,,0.00,WeatherDisplay:10.37,2013-09-08 08:20:00,
2013-09-08 18:24:00,66.0,57.9,30.19,North,359,0.0,0.0,75,0.00,CLR,,0.00,WeatherDisplay:10.37,2013-09-08 08:24:00,
2013-09-08 18:30:00,66.0,58.2,30.19,NE,48,0.0,0.0,76,0.00,CLR,,0.00,WeatherDisplay:10.37,2013-09-08 08:30:00,
2013-09-08 18:40:00,66.0,58.2,30.19,ENE,59,0.0,0.0,76,0.00,CLR,,0.00,WeatherDisplay:10.37,2013-09-08 08:40:00,
2013-09-08 18:44:00,65.8,58.1,30.19,ENE,72,0.0,0.0,76,0.00,CLR,,0.00,WeatherDisplay:10.37,2013-09-08 08:44:00,
2013-09-08 18:50:00,65.8,58.4,30.19,ENE,62,0.0,0.0,77,0.00,CLR,,0.00,WeatherDisplay:10.37,2013-09-08 08:50:00,
2013-09-08 18:54:00,65.8,58.4,30.19,NNE,33,0.0,0.0,77,0.00,CLR,,0.00,WeatherDisplay:10.37,2013-09-08 08:54:00,
2013-09-08 18:59:00,65.8,58.4,30.19,NE,42,0.0,0.0,77,0.00,CLR,,0.00,WeatherDisplay:10.37,2013-09-08 08:59:00,
2013-09-08 19:04:00,65.8,58.4,30.20,NE,45,0.0,0.0,77,0.00,CLR,,0.00,WeatherDisplay:10.37,2013-09-08 09:04:00,
2013-09-08 19:10:00,66.0,58.6,30.19,NE,39,0.0,0.0,77,0.00,CLR,,0.00,WeatherDisplay:10.37,2013-09-08 09:10:00,
2013-09-08 19:14:00,65.8,58.4,30.20,NE,40,0.0,7.0,77,0.00,CLR,,0.00,WeatherDisplay:10.37,2013-09-08 09:14:00,
2013-09-08 19:20:00,65.8,58.4,30.20,NE,50,0.0,1.0,77,0.00,CLR,,0.00,WeatherDisplay:10.37,2013-09-08 09:20:00,
2013-09-08 19:24:00,65.8,58.4,30.20,ENE,59,0.0,7.0,77,0.00,CLR,,0.00,WeatherDisplay:10.37,2013-09-08 09:24:00,
2013-09-08 19:30:00,65.8,58.4,30.20,NE,51,0.0,1.0,77,0.00,CLR,,0.00,WeatherDisplay:10.37,2013-09-08 09:30:00,
2013-09-08 19:40:00,65.8,58.7,30.20,NE,47,0.0,0.0,78,0.00,CLR,,0.00,WeatherDisplay:10.37,2013-09-08 09:40:00,
2013-09-08 19:44:00,65.8,58.8,30.20,ENE,63,0.0,0.0,78,0.00,CLR,,0.00,WeatherDisplay:10.37,2013-09-08 09:44:00,
2013-09-08 19:50:00,65.7,58.6,30.20,ENE,75,1.0,7.0,78,0.00,CLR,,0.00,WeatherDisplay:10.37,2013-09-08 09:50:00,
2013-09-08 19:54:00,65.5,58.4,30.20,ENE,70,0.0,0.0,78,0.00,CLR,,0.00,WeatherDisplay:10.37,2013-09-08 09:54:00,
2013-09-08 19:59:00,65.5,58.4,30.21,NE,51,0.0,0.0,78,0.00,CLR,,0.00,WeatherDisplay:10.37,2013-09-08 09:59:00,
2013-09-08 20:04:00,65.5,58.4,30.21,NE,45,0.0,0.0,78,0.00,CLR,,0.00,WeatherDisplay:10.37,2013-09-08 10:04:00,
2013-09-08 20:09:00,65.5,58.8,30.22,ENE,57,0.0,0.0,79,0.00,CLR,,0.00,WeatherDisplay:10.37,2013-09-08 10:09:00,
2013-09-08 20:14:00,65.5,58.8,30.22,East,99,0.0,0.0,79,0.00,CLR,,0.00,WeatherDisplay:10.37,2013-09-08 10:14:00,
2013-09-08 20:20:00,65.5,58.8,30.22,South,188,0.0,2.0,79,0.00,CLR,,0.00,WeatherDisplay:10.37,2013-09-08 10:20:00,
2013-09-08 20:24:00,65.5,58.8,30.22,NW,306,0.0,0.0,79,0.00,CLR,,0.00,WeatherDisplay:10.37,2013-09-08 10:24:00,
2013-09-08 20:30:00,65.3,58.6,30.22,WNW,291,0.0,0.0,79,0.00,CLR,,0.00,WeatherDisplay:10.37,2013-09-08 10:30:00,
2013-09-08 20:40:00,65.5,58.8,30.22,West,272,0.0,0.0,79,0.00,CLR,,0.00,WeatherDisplay:10.37,2013-09-08 10:40:00,
2013-09-08 20:44:00,65.3,58.6,30.22,West,277,0.0,0.0,79,0.00,CLR,,0.00,WeatherDisplay:10.37,2013-09-08 10:44:00,
2013-09-08 20:50:00,65.3,58.6,30.22,West,268,0.0,0.0,79,0.00,CLR,,0.00,WeatherDisplay:10.37,2013-09-08 10:50:00,
2013-09-08 20:54:00,65.3,58.6,30.22,West,265,0.0,0.0,79,0.00,CLR,,0.00,WeatherDisplay:10.37,2013-09-08 10:54:00,
2013-09-08 20:59:00,65.2,58.6,30.23,West,267,0.0,0.0,79,0.00,CLR,,0.00,WeatherDisplay:10.37,2013-09-08 10:59:00,
2013-09-08 21:04:00,65.3,58.6,30.23,NW,305,0.0,2.0,79,0.00,CLR,,0.00,WeatherDisplay:10.37,2013-09-08 11:04:00,
2013-09-08 21:09:00,65.4,58.7,30.23,NE,43,0.0,1.0,79,0.00,CLR,,0.00,WeatherDisplay:10.37,2013-09-08 11:09:00,
2013-09-08 21:14:00,65.5,58.8,30.23,SE,125,0.0,2.0,79,0.00,CLR,,0.00,WeatherDisplay:10.37,2013-09-08 11:14:00,
2013-09-08 21:19:00,65.5,58.8,30.23,WSW,239,0.0,0.0,79,0.00,CLR,,0.00,WeatherDisplay:10.37,2013-09-08 11:19:00,
2013-09-08 21:24:00,65.3,58.6,30.23,WSW,237,0.0,0.0,79,0.00,CLR,,0.00,WeatherDisplay:10.37,2013-09-08 11:24:00,
2013-09-08 21:30:00,65.3,58.6,30.23,WSW,241,0.0,0.0,79,0.00,CLR,,0.00,WeatherDisplay:10.37,2013-09-08 11:30:00,
2013-09-08 21:39:00,65.1,58.4,30.23,WSW,258,0.0,0.0,79,0.00,CLR,,0.00,WeatherDisplay:10.37,2013-09-08 11:39:00,
2013-09-08 21:44:00,65.1,58.4,30.23,SW,224,0.0,0.0,79,0.00,CLR,,0.00,WeatherDisplay:10.37,2013-09-08 11:44:00,
2013-09-08 21:49:00,65.1,58.4,30.23,SW,223,0.0,0.0,79,0.00,CLR,,0.00,WeatherDisplay:10.37,2013-09-08 11:49:00,
2013-09-08 21:54:00,65.1,58.4,30.23,WSW,256,0.0,0.0,79,0.00,CLR,,0.00,WeatherDisplay:10.37,2013-09-08 11:54:00,
2013-09-08 21:59:00,65.1,58.4,30.23,WNW,289,0.0,0.0,79,0.00,CLR,,0.00,WeatherDisplay:10.37,2013-09-08 11:59:00,
2013-09-08 22:04:00,65.1,58.4,30.23,NW,312,0.0,1.0,79,0.00,CLR,,0.00,WeatherDisplay:10.37,2013-09-08 12:04:00,
2013-09-08 22:10:00,65.1,58.8,30.23,ENE,73,0.0,0.0,80,0.00,CLR,,0.00,WeatherDisplay:10.37,2013-09-08 12:10:00,
2013-09-08 22:14:00,65.1,58.8,30.23,NE,46,0.0,1.0,80,0.00,CLR,,0.00,WeatherDisplay:10.37,2013-09-08 12:14:00,
2013-09-08 22:20:00,65.1,58.8,30.23,NNE,20,1.0,4.0,80,0.00,CLR,,0.00,WeatherDisplay:10.37,2013-09-08 12:20:00,
2013-09-08 22:30:00,65.3,59.0,30.23,NE,52,0.0,7.0,80,0.00,CLR,,0.00,WeatherDisplay:10.37,2013-09-08 12:30:00,
2013-09-08 22:39:00,65.5,59.1,30.23,SE,133,0.0,1.0,80,0.00,CLR,,0.00,WeatherDisplay:10.37,2013-09-08 12:39:00,
2013-09-08 22:44:00,65.5,59.1,30.23,SSE,150,0.0,1.0,80,0.00,CLR,,0.00,WeatherDisplay:10.37,2013-09-08 12:44:00,
2013-09-08 22:50:00,65.5,59.1,30.23,SSW,203,0.0,0.0,80,0.00,CLR,,0.00,WeatherDisplay:10.37,2013-09-08 12:50:00,
2013-09-08 22:54:00,65.5,59.1,30.23,SSW,201,0.0,0.0,80,0.00,CLR,,0.00,WeatherDisplay:10.37,2013-09-08 12:54:00,
2013-09-08 22:59:00,65.5,59.1,30.23,SSW,192,0.0,2.0,80,0.00,CLR,,0.00,WeatherDisplay:10.37,2013-09-08 12:59:00,
2013-09-08 23:04:00,65.3,59.0,30.23,SSW,201,0.0,0.0,80,0.00,CLR,,0.00,WeatherDisplay:10.37,2013-09-08 13:04:00,
2013-09-08 23:09:00,65.3,59.0,30.23,SSW,212,0.0,0.0,80,0.00,CLR,,0.00,WeatherDisplay:10.37,2013-09-08 13:09:00,
2013-09-08 23:14:00,65.3,59.0,30.23,SW,220,0.0,0.0,80,0.00,CLR,,0.00,WeatherDisplay:10.37,2013-09-08 13:14:00,
2013-09-08 23:20:00,65.3,59.3,30.23,SSW,197,0.0,0.0,81,0.00,CLR,,0.00,WeatherDisplay:10.37,2013-09-08 13:20:00,
2013-09-08 23:29:00,65.1,59.1,30.22,SW,220,0.0,0.0,81,0.00,CLR,,0.00,WeatherDisplay:10.37,2013-09-08 13:29:00,
2013-09-08 23:34:00,65.1,59.1,30.22,WSW,248,0.0,0.0,81,0.00,CLR,,0.00,WeatherDisplay:10.37,2013-09-08 13:34:00,
2013-09-08 23:39:00,64.9,59.0,30.22,West,261,0.0,0.0,81,0.00,CLR,,0.00,WeatherDisplay:10.37,2013-09-08 13:39:00,
2013-09-08 23:44:00,64.9,59.0,30.22,SW,236,0.0,1.0,81,0.00,CLR,,0.00,WeatherDisplay:10.37,2013-09-08 13:44:00,
2013-09-08 23:49:00,64.9,59.0,30.22,SSW,204,0.0,1.0,81,0.00,CLR,,0.00,WeatherDisplay:10.37,2013-09-08 13:49:00,
2013-09-08 23:54:00,64.8,58.8,30.22,WNW,291,0.0,2.0,81,0.00,CLR,,0.00,WeatherDisplay:10.37,2013-09-08 13:54:00,
2013-09-08 23:59:00,64.6,58.6,30.22,West,280,0.0,0.0,81,0.00,CLR,,0.00,WeatherDisplay:10.37,2013-09-08 13:59:00,